Previsão horária em Abaytikau

Hoje, 19 Janeiro, Terça-feira

Tempo Temperatura Precipitação Vento Pressão Humidade
00:00 -15°C° 0.1 mm 3 m/s 566 mmHg 94%
01:00 -15°C° 0.2 mm 3 m/s 566 mmHg 93%
02:00 -16°C° 0.2 mm 3 m/s 566 mmHg 92%
03:00 -16°C° 0.2 mm 3 m/s 566 mmHg 91%
04:00 -17°C° 0 mm 3 m/s 566 mmHg 91%
05:00 -19°C° 0 mm 3 m/s 566 mmHg 91%
06:00 -21°C° 0 mm 3 m/s 565 mmHg 91%
07:00 -19°C° 0 mm 3 m/s 566 mmHg 89%
08:00 -19°C° 0 mm 3 m/s 566 mmHg 88%
09:00 -18°C° 0 mm 3 m/s 567 mmHg 86%
10:00 -17°C° 0 mm 3 m/s 567 mmHg 83%
11:00 -17°C° 0 mm 4 m/s 568 mmHg 80%
12:00 -16°C° 0 mm 4 m/s 568 mmHg 77%
13:00 -15°C° 0 mm 3 m/s 568 mmHg 79%
14:00 -15°C° 0 mm 3 m/s 567 mmHg 80%
15:00 -15°C° 0 mm 3 m/s 567 mmHg 82%
16:00 -17°C° 0 mm 3 m/s 566 mmHg 86%
17:00 -18°C° 0 mm 2 m/s 566 mmHg 89%
18:00 -20°C° 0 mm 2 m/s 565 mmHg 93%
19:00 -20°C° 0 mm 2 m/s 565 mmHg 92%
20:00 -20°C° 0 mm 2 m/s 565 mmHg 91%
21:00 -22°C° 0 mm 3 m/s 565 mmHg 91%
22:00 -23°C° 0 mm 3 m/s 565 mmHg 89%
23:00 -23°C° 0 mm 3 m/s 565 mmHg 86%

Amanhã, 20 Janeiro, Quarta-feira

Tempo Temperatura Precipitação Vento Pressão Humidade
00:00 -23°C° 0 mm 3 m/s 565 mmHg 84%
01:00 -23°C° 0 mm 3 m/s 565 mmHg 82%
02:00 -23°C° 0 mm 3 m/s 565 mmHg 80%
03:00 -23°C° 0 mm 3 m/s 565 mmHg 77%
04:00 -23°C° 0 mm 3 m/s 565 mmHg 78%
05:00 -23°C° 0 mm 3 m/s 565 mmHg 78%
06:00 -23°C° 0 mm 2 m/s 565 mmHg 79%
07:00 -21°C° 0 mm 2 m/s 566 mmHg 79%
08:00 -20°C° 0 mm 2 m/s 566 mmHg 79%
09:00 -19°C° 0 mm 2 m/s 567 mmHg 79%
10:00 -18°C° 0 mm 2 m/s 567 mmHg 80%
11:00 -16°C° 0 mm 2 m/s 568 mmHg 81%
12:00 -15°C° 0 mm 2 m/s 568 mmHg 82%
13:00 -15°C° 0.1 mm 2 m/s 568 mmHg 84%
14:00 -14°C° 0.1 mm 1 m/s 568 mmHg 87%
15:00 -14°C° 0.1 mm 1 m/s 568 mmHg 89%
16:00 -15°C° 0 mm 1 m/s 567 mmHg 91%
17:00 -17°C° 0 mm 1 m/s 567 mmHg 93%
18:00 -19°C° 0 mm 1 m/s 566 mmHg 95%
19:00 -19°C° 0 mm 1 m/s 566 mmHg 94%
20:00 -20°C° 0 mm 1 m/s 566 mmHg 92%
21:00 -20°C° 0 mm 1 m/s 566 mmHg 90%
22:00 -23°C° 0 mm 2 m/s 566 mmHg 88%
23:00 -24°C° 0 mm 2 m/s 566 mmHg 86%

Depois de amanhã, 21 Janeiro, Quinta-feira

Tempo Temperatura Precipitação Vento Pressão Humidade
00:00 -24°C° 0 mm 2 m/s 566 mmHg 84%
01:00 -24°C° 0 mm 2 m/s 566 mmHg 82%
02:00 -24°C° 0 mm 2 m/s 566 mmHg 81%
03:00 -24°C° 0 mm 2 m/s 567 mmHg 79%
04:00 -21°C° 0 mm 1 m/s 567 mmHg 78%
05:00 -21°C° 0 mm 1 m/s 567 mmHg 77%
06:00 -21°C° 0 mm 1 m/s 568 mmHg 76%
07:00 -19°C° 0 mm 1 m/s 569 mmHg 74%
08:00 -18°C° 0 mm 1 m/s 570 mmHg 72%
09:00 -17°C° 0 mm 1 m/s 571 mmHg 71%
10:00 -16°C° 0 mm 1 m/s 572 mmHg 69%
11:00 -14°C° 0 mm 1 m/s 572 mmHg 68%
12:00 -13°C° 0 mm 1 m/s 573 mmHg 67%
13:00 -13°C° 0 mm 1 m/s 573 mmHg 70%
14:00 -13°C° 0 mm 1 m/s 573 mmHg 73%
15:00 -12°C° 0 mm 1 m/s 574 mmHg 77%
16:00 -14°C° 0 mm 1 m/s 573 mmHg 76%
17:00 -16°C° 0 mm 1 m/s 572 mmHg 75%
18:00 -18°C° 0 mm 1 m/s 572 mmHg 74%
19:00 -18°C° 0 mm 1 m/s 572 mmHg 65%
20:00 -18°C° 0 mm 1 m/s 572 mmHg 56%
21:00 -18°C° 0 mm 1 m/s 573 mmHg 46%
22:00 -18°C° 0 mm 1 m/s 573 mmHg 42%
23:00 -18°C° 0 mm 1 m/s 573 mmHg 38%

22 Janeiro, Sexta-feira

Tempo Temperatura Precipitação Vento Pressão Humidade
00:00 -17°C° 0 mm 1 m/s 573 mmHg 35%
01:00 -17°C° 0 mm 1 m/s 573 mmHg 33%
02:00 -17°C° 0 mm 1 m/s 574 mmHg 31%
03:00 -19°C° 0 mm 2 m/s 574 mmHg 29%
04:00 -18°C° 0 mm 2 m/s 574 mmHg 27%
05:00 -18°C° 0 mm 2 m/s 574 mmHg 25%
06:00 -17°C° 0 mm 2 m/s 574 mmHg 23%
07:00 -14°C° 0 mm 1 m/s 575 mmHg 25%
08:00 -12°C° 0 mm 1 m/s 576 mmHg 27%
09:00 -11°C° 0 mm 1 m/s 577 mmHg 30%
10:00 -9°C° 0 mm 1 m/s 577 mmHg 35%
11:00 -7°C° 0 mm 1 m/s 578 mmHg 39%
12:00 -6°C° 0 mm 1 m/s 579 mmHg 44%
13:00 -7°C° 0 mm 2 m/s 578 mmHg 49%
14:00 -7°C° 0 mm 2 m/s 578 mmHg 55%
15:00 -7°C° 0 mm 2 m/s 577 mmHg 60%
16:00 -9°C° 0 mm 2 m/s 577 mmHg 49%
17:00 -12°C° 0 mm 2 m/s 576 mmHg 37%
18:00 -14°C° 0 mm 3 m/s 575 mmHg 26%
19:00 -14°C° 0 mm 3 m/s 575 mmHg 23%
20:00 -14°C° 0 mm 3 m/s 575 mmHg 20%
21:00 -14°C° 0 mm 3 m/s 576 mmHg 16%
22:00 -14°C° 0 mm 3 m/s 575 mmHg 16%
23:00 -13°C° 0 mm 3 m/s 575 mmHg 15%

23 Janeiro, Sábado

Tempo Temperatura Precipitação Vento Pressão Humidade
00:00 -13°C° 0 mm 3 m/s 575 mmHg 15%
01:00 -13°C° 0 mm 3 m/s 575 mmHg 14%
02:00 -13°C° 0 mm 3 m/s 575 mmHg 14%
03:00 -13°C° 0 mm 3 m/s 575 mmHg 14%
04:00 -13°C° 0 mm 3 m/s 575 mmHg 14%
05:00 -12°C° 0 mm 3 m/s 575 mmHg 14%
06:00 -12°C° 0 mm 3 m/s 575 mmHg 14%
07:00 -10°C° 0 mm 3 m/s 576 mmHg 16%
08:00 -10°C° 0 mm 3 m/s 576 mmHg 19%
09:00 -9°C° 0 mm 3 m/s 577 mmHg 21%
10:00 -7°C° 0 mm 3 m/s 577 mmHg 28%
11:00 -4°C° 0 mm 2 m/s 577 mmHg 36%
12:00 -3°C° 0 mm 2 m/s 578 mmHg 43%
13:00 -3°C° 0 mm 2 m/s 577 mmHg 46%
14:00 -4°C° 0 mm 2 m/s 577 mmHg 49%
15:00 -4°C° 0 mm 2 m/s 576 mmHg 52%
16:00 -6°C° 0 mm 2 m/s 575 mmHg 41%
17:00 -8°C° 0 mm 2 m/s 575 mmHg 30%
18:00 -10°C° 0 mm 2 m/s 574 mmHg 19%
19:00 -10°C° 0 mm 2 m/s 574 mmHg 18%
20:00 -12°C° 0 mm 3 m/s 574 mmHg 16%
21:00 -12°C° 0 mm 3 m/s 574 mmHg 15%
22:00 -12°C° 0 mm 3 m/s 573 mmHg 15%
23:00 -10°C° 0 mm 3 m/s 573 mmHg 15%

24 Janeiro, Domingo

Tempo Temperatura Precipitação Vento Pressão Humidade
00:00 -10°C° 0 mm 3 m/s 573 mmHg 15%
01:00 -10°C° 0 mm 3 m/s 573 mmHg 15%
02:00 -10°C° 0 mm 3 m/s 573 mmHg 15%
03:00 -10°C° 0 mm 3 m/s 573 mmHg 15%
04:00 -10°C° 0 mm 3 m/s 573 mmHg 15%
05:00 -10°C° 0 mm 3 m/s 573 mmHg 15%
06:00 -10°C° 0 mm 3 m/s 573 mmHg 15%
07:00 -9°C° 0 mm 3 m/s 573 mmHg 19%
08:00 -7°C° 0 mm 2 m/s 574 mmHg 24%
09:00 -6°C° 0 mm 2 m/s 574 mmHg 29%
10:00 -4°C° 0 mm 2 m/s 574 mmHg 34%
11:00 -3°C° 0 mm 2 m/s 575 mmHg 40%
12:00 -2°C° 0 mm 2 m/s 575 mmHg 46%
13:00 -2°C° 0 mm 2 m/s 575 mmHg 49%
14:00 -2°C° 0 mm 2 m/s 574 mmHg 53%
15:00 -2°C° 0 mm 2 m/s 574 mmHg 57%
16:00 -4°C° 0 mm 2 m/s 574 mmHg 50%
17:00 -5°C° 0 mm 2 m/s 573 mmHg 42%
18:00 -6°C° 0 mm 2 m/s 573 mmHg 35%
19:00 -6°C° 0 mm 2 m/s 573 mmHg 34%
20:00 -6°C° 0 mm 2 m/s 573 mmHg 33%
21:00 -7°C° 0 mm 2 m/s 573 mmHg 32%
22:00 -7°C° 0 mm 2 m/s 573 mmHg 31%
23:00 -7°C° 0 mm 2 m/s 573 mmHg 31%
Mostrar mais